Walla Walla, WA

10:19 AM PDT on June 28, 2017 (GMT -0700)
Walla Walla Regional

Weather History for KALW - March, 2013

Change the Weather History Date:

Monday, March 18, 2013

  Actual Average Record
Temperature  
Mean Temperature 46 °F 47 °F  
Max Temperature 55 °F 56 °F 69 °F (1960)
Min Temperature 37 °F 38 °F 17 °F (1965)
Degree Days  
Heating Degree Days 20 18  
Month to date heating degree days 367  
Since 1 July heating degree days 4144  
Cooling Degree Days 0 0  
Month to date cooling degree days 0  
Year to date cooling degree days 0  
Moisture  
Dew Point 27 °F    
Average Humidity 54    
Maximum Humidity 68    
Minimum Humidity 33    
Precipitation  
Precipitation 0.00 in 0.08 in 0.67 in (1976)
Month to date precipitation 1.32  
Year to date precipitation 5.61  
Snow  
Snow 0.00 in 0.10 in 3.80 in (1982)
Month to date snowfall 0.8  
Year to date snowfall 5.8  
Since 1 July snowfall 11.5  
Snow Depth -    
Sea Level Pressure  
Sea Level Pressure 30.16 in    
Wind  
Wind Speed 14 mph (SW)    
Max Wind Speed 24 mph    
Max Gust Speed 30 mph    
Visibility 10 miles    
Events      
T = Trace of Precipitation, MM = Missing Value Source: NWS Daily Summary

Daily Weather History Graph

Daily Weather History Graph

Search for Another Location

Airport or City:

Trip Planner

Search our weather history database for the weather conditions in past years. The results will help you decide how hot, cold, wet, or windy it might be!

Date:

Astronomy

Mar. 18, 2013 Rise Set
Actual Time 6:59 AM PDT 7:03 PM PDT
Civil Twilight 6:29 AM PDT 7:33 PM PDT
Nautical Twilight 5:54 AM PDT 8:08 PM PDT
Astronomical Twilight 5:18 AM PDT 8:44 PM PDT
Moon 10:44 AM PDT (3/18) 1:25 AM PDT (3/18)
Length of Visible Light 13h 03m
Length of Day
12h 04m
Waxing Crescent, 41% of the Moon is Illuminated
Mar 18
Waxing Crescent
Mar 19
First Quarter
Mar 27
Full
Apr 2
Last Quarter
Apr 10
New

Hourly Weather History & Observations

Time (PDT) Temp. Windchill Dew Point Humidity Pressure Visibility Wind Dir Wind Speed Gust Speed Precip Events Conditions
12:53 AM 39.9 °F 33.9 °F 28.0 °F 63% 30.15 in 10.0 mi SSW 9.2 mph - N/A   Overcast
1:53 AM 39.0 °F 30.6 °F 28.0 °F 65% 30.16 in 10.0 mi SW 15.0 mph - N/A   Overcast
2:53 AM 39.0 °F 30.6 °F 27.0 °F 62% 30.15 in 10.0 mi SW 15.0 mph - N/A   Overcast
3:53 AM 37.9 °F 30.9 °F 28.0 °F 68% 30.15 in 10.0 mi SSW 10.4 mph - N/A   Partly Cloudy
4:53 AM 37.9 °F 30.0 °F 28.0 °F 68% 30.16 in 10.0 mi SSW 12.7 mph - N/A   Overcast
5:53 AM 37.9 °F 30.0 °F 28.0 °F 68% 30.17 in 10.0 mi SSW 12.7 mph - N/A   Overcast
6:53 AM 37.0 °F 29.8 °F 27.0 °F 67% 30.19 in 10.0 mi SSW 10.4 mph - N/A   Overcast
7:53 AM 37.9 °F 30.0 °F 27.0 °F 65% 30.19 in 10.0 mi South 12.7 mph - N/A   Clear
8:53 AM 39.9 °F 32.1 °F 27.0 °F 60% 30.19 in 10.0 mi SSW 13.8 mph - N/A   Clear
9:53 AM 44.1 °F 36.5 °F 28.0 °F 53% 30.17 in 10.0 mi SSW 17.3 mph 23.0 mph N/A   Scattered Clouds
10:53 AM 45.0 °F 37.1 °F 27.0 °F 49% 30.17 in 10.0 mi WSW 19.6 mph 28.8 mph N/A   Mostly Cloudy
11:53 AM 46.9 °F - 27.0 °F 46% 30.14 in 10.0 mi SW 24.2 mph 28.8 mph N/A   Scattered Clouds
12:53 PM 48.9 °F - 26.1 °F 41% 30.13 in 10.0 mi WSW 19.6 mph 25.3 mph N/A   Mostly Cloudy
1:53 PM 52.0 °F - 27.0 °F 38% 30.12 in 10.0 mi WSW 19.6 mph 28.8 mph N/A   Partly Cloudy
2:53 PM 53.1 °F - 28.0 °F 38% 30.09 in 10.0 mi WSW 20.7 mph - N/A   Partly Cloudy
3:53 PM 54.0 °F - 25.0 °F 33% 30.09 in 10.0 mi WSW 24.2 mph 29.9 mph N/A   Clear
4:53 PM 54.0 °F - 25.0 °F 33% 30.09 in 10.0 mi WSW 21.9 mph 28.8 mph N/A   Scattered Clouds
5:53 PM 52.0 °F - 26.1 °F 37% 30.11 in 10.0 mi WSW 20.7 mph 25.3 mph N/A   Partly Cloudy
6:53 PM 48.9 °F - 28.0 °F 44% 30.13 in 10.0 mi WSW 11.5 mph - N/A   Partly Cloudy
7:53 PM 45.0 °F 40.1 °F 30.0 °F 56% 30.16 in 10.0 mi WSW 9.2 mph - N/A   Clear
8:53 PM 42.1 °F 36.1 °F 28.9 °F 60% 30.19 in 10.0 mi South 10.4 mph - N/A   Clear
9:53 PM 42.1 °F 35.7 °F 28.0 °F 58% 30.22 in 10.0 mi South 11.5 mph - N/A   Clear
10:53 PM 39.9 °F 33.9 °F 28.0 °F 63% 30.24 in 10.0 mi South 9.2 mph - N/A   Clear
11:53 PM 39.9 °F 34.5 °F 28.0 °F 63% 30.24 in 10.0 mi South 8.1 mph - N/A   Clear